Regional Weather Roundup
Issued by NWS Green Bay, WI

Home | Current Version | Previous Version | Graphics & Text | Print | Product List | Glossary Off
Versions: 1 2 3 4 5 6 7 8 9 10 11 12 13 14 15 16 17 18 19 20 21 22 23 24 25 26 27 28 29 30 31 32 33 34 35 36 37 38 39 40 41 42 43 44 45 46 47 48 49 50

000
ASUS43 KGRB 200111
RWRGRB

NORTH-CENTRAL AND NORTHEAST WISCONSIN REGIONAL WEATHER ROUNDUP
NATIONAL WEATHER SERVICE GREEN BAY WI
800 PM CDT TUE SEP 19 2017

WIZ005-009-010>012-018-019-200200-
NORTH CENTRAL WISCONSIN

CITY           SKY/WX    TMP DP  RH WIND       PRES   REMARKS
IRONWOOD       CLEAR     67  58  72 SE8       29.88S
MANITOWISH WTR CLEAR     65  59  81 SE8       29.91R
ARBOR VITAE    CLEAR     65  58  77 SE7       29.91S
EAGLE RIVER    CLEAR     63  55  74 SE5       29.94R
LAND O LAKES   CLEAR     62  56  83 SE5       29.95S
RHINELANDER    CLEAR     63  58  83 SE7       29.94R
PHILLIPS       CLOUDY    65  58  77 E5        29.87S
ANTIGO         CLEAR     61  58  90 E8        29.94S
TOMAHAWK         N/A     63  57  80 E5        29.91S
MERRILL        NOT AVBL
$$

WIZ013-073-200200-
NORTHEAST WISCONSIN

CITY           SKY/WX    TMP DP  RH WIND       PRES   REMARKS
IRON MOUNTAIN  CLEAR     63  53  70 E5        29.95S
MARINETTE      CLEAR     64  55  72 E8        29.95F
OCONTO         CLEAR     61  56  84 CALM      29.94S
$$

WIZ017-030-035>037-045-200200-
CENTRAL WISCONSIN

CITY           SKY/WX    TMP DP  RH WIND       PRES   REMARKS
MEDFORD        CLEAR     65  56  74 SE7       29.88R
WAUSAU         CLEAR     66  58  75 E8        29.88F
MOSINEE        CLEAR     64  59  82 E7        29.90F
MARSHFIELD     CLEAR     67  57  70 E8        29.86F
WISC RAPIDS    CLEAR     69  60  73 SE12      29.89S
STEVENS POINT  CLEAR     64  59  85 E7        29.90S
WAUPACA        CLEAR     67  59  74 E7        29.91S
SHAWANO        CLEAR     64  55  74 E7        29.93S
CLINTONVILLE   CLEAR     64  55  72 E5        29.92S
WAUTOMA        CLEAR     68  61  78 E6        29.90R
$$

WIZ038-039-048-051-200200-
FOX VALLEY

CITY           SKY/WX    TMP DP  RH WIND       PRES   REMARKS
NWS GREEN BAY  CLEAR     64  60  87 E9        29.94R
APPLETON       PTCLDY    66  55  68 SE9       29.92
OSHKOSH        CLEAR     66  61  84 SE9       29.91S
FOND DU LAC    CLEAR     66  60  81 SE8       29.92R
$$

WIZ022-050-052-200200-
EAST CENTRAL WISCONSIN

CITY           SKY/WX    TMP DP  RH WIND       PRES   REMARKS
EPHRAIM        FAIR      60  58  95 E5        29.96R
WASHINGTON ISL FAIR      60  58  94 CALM      29.96S
STURGEON BAY   CLEAR     61  58  90 E6        29.96S
MANITOWOC      CLEAR     60  58  92 CALM      29.95R
SHEBOYGAN      CLEAR     59  59 100 CALM      29.94S
$$

LMZ563-521-522-541>543-200200-
LAKESHORE

STATION/POSITION TIME  TEMP    WIND        PRES    VSBY  WAVE
                       AIR SEA DIR/SP/G                  HT/PER
                 (UTC) (F)     (DEG/KT/KT) (MB)    (MI)  (FT/S)
SHEBOYGAN LKSHOR 0100   65      80/  7/  7 1013.6R
KEWAUNEE LKSHORE 0042   60      40/  3/  4 1013.3S
NORTHPORT PIER   0040   64      60/  5/  6 1014.6R
N MID LAKE BUOY  0050   65 65   70/ 10/ 12 1015.0S         1
S GREEN BAY BUOY 0100   65 67  100/ 10/ 12 1013.8
MENOMINEE LKSHOR 0042   66      70/ 11/ 12 1013.8S
$$




USA.gov is the U.S. government's official web portal to all federal, state and local government web resources and services.